Weather in Dzhulynka

Ukraine / Vinnytsia Region     48°26′29″N   29°44′51″E
temp.,
°C
wind,
m/s
gust,
m/s
humid.,
%
clouds,
%
prec.,
mm/h
press.,
hPa
HPBL,
m
7 may, fri
fri700:00+8n116886 0.0 101510
03:00+7sse227156 0.0 101517
06:00+7s357650 0.0 101586
09:00+13sse61066100 0.0 1014566
12:00+14s81266100 0.0 10131151
15:00+16s81271100 0.6 10101254
18:00+16s81480100 2.3 1008629
21:00+13s61390100 5.3 1008484
8 may, sat
sat800:00+12s4996100 1.3 1007503
03:00+11wnw71193100 4.8 1008652
06:00+9nw61287100 0.8 1011634
09:00+8nw8107596 0.8 1014765
12:00+11wnw8105422 0.0 10161493
15:00+12nw9114794 0.0 10162418
18:00+9nnw89625 0.1 10191323
21:00+6nw410670 0.1 1021314
9 may, sun
sun900:00+5nw38770 0.0 1022163
03:00+4wnw49860 0.0 1024212
06:00+3nw39910 0.0 1025250
09:00+8nw56655 0.0 1026695
12:00+12nnw45495 0.0 10261373
15:00+14nw34425 0.0 10262082
18:00+14n134030 0.0 10262020
21:00+11se2249100 0.0 102825
10 may, mon
mon1000:00+8sse33565 0.0 102928
03:00+7sse33625 0.0 102938
06:00+6se34725 0.0 103058
09:00+11se46614 0.0 1030451
12:00+15sse55473 0.0 10301585
15:00+16sse44430 0.0 10281680
18:00+16se33452 0.0 10271603
21:00+12ese33610 0.0 102826
11 may, tue
tue1100:00+8ese38650 0.0 1028152
03:00+7ese34660 0.0 102852
06:00+7e22730 0.0 102825
09:00+12ene35610 0.0 1027500
12:00+16ene56470 0.0 10251224
15:00+18ene45470 0.0 10231376
18:00+18ene45545 0.0 10221343
21:00+13ene487513 0.0 1022139